This demonstration page uses our WeatherBlox Daily Observations layout. Learn more.

Left ArrowRight Arrow

Hourly Observations for October 9, 2021

Temp ( °F °C ) Dew Point ( °F °C ) Humidity (%) Winds ( mph kmh ) Pressure ( in mb ) Visibility ( mi km ) Precip ( " mm )
12:53 am 00:53 Clear 75 23.9 49 9.4 40 40 SE 16 26 29.84 1011 10 16 0.00 0.00
1:53 am 01:53 Clear 73 22.8 49 9.4 43 43 SE 16 26 29.83 1010 10 16 0.00 0.00
2:53 am 02:53 Clear 71 21.7 49 9.4 46 46 SE 13 20 29.83 1010 10 16 0.00 0.00
3:53 am 03:53 Clear 69 20.6 49 9.4 49 49 SE 12 19 29.83 1010 10 16 0.00 0.00
4:53 am 04:53 Clear 68 20 49 9.4 51 51 SE 12 19 29.81 1009 10 16 0.00 0.00
5:53 am 05:53 Clear 67 19.4 49 9.4 53 53 SE 12 19 29.81 1009 10 16 0.00 0.00
6:53 am 06:53 Clear 65 18.3 49 9.4 56 56 SE 8 13 29.82 1010 10 16 0.00 0.00
7:53 am 07:53 Sunny 63 17.2 49 9.4 60 60 SE 9 15 29.83 1010 10 16 0.00 0.00
8:53 am 08:53 Sunny 66 18.9 50 10 56 56 SE 10 17 29.84 1011 10 16 0.00 0.00
9:53 am 09:53 Sunny 73 22.8 50 10 44 44 SSE 12 19 29.84 1011 10 16 0.00 0.00
10:53 am 10:53 Sunny 79 26.1 50 10 36 36 SE 8 13 29.84 1010 10 16 0.00 0.00
11:53 am 11:53 Sunny 85 29.4 48 8.9 28 28 VRB 5 7 29.81 1010 10 16 0.00 0.00
12:53 pm 12:53 Sunny 90 32.2 44 6.7 20 20 SSW 9 15 29.78 1008 10 16 0.00 0.00
1:53 pm 13:53 Sunny 94 34.4 42 5.6 17 17 SSW 15 24 29.74 1007 10 16 0.00 0.00
2:53 pm 14:53 Sunny 97 36.1 42 5.6 15 15 SW 10 17 29.69 1005 10 16 0.00 0.00
3:53 pm 15:53 Sunny 100 37.8 40 4.4 13 13 WSW 16 26 29.65 1004 10 16 0.00 0.00
4:53 pm 16:53 Sunny 99 37.2 40 4.4 13 13 SSW 14 22 29.64 1004 10 16 0.00 0.00
5:53 pm 17:53 Sunny 98 36.7 39 3.9 13 13 WSW 10 17 29.62 1003 10 16 0.00 0.00
6:53 pm 18:53 Sunny 96 35.6 38 3.3 13 13 WSW 13 20 29.62 1003 10 16 0.00 0.00
7:53 pm 19:53 Clear 89 31.7 44 6.7 21 21 SE 10 17 29.65 1004 10 16 0.00 0.00
8:53 pm 20:53 Clear 85 29.4 46 7.8 26 26 SE 15 24 29.65 1004 10 16 0.00 0.00
9:53 pm 21:53 Clear 81 27.2 47 8.3 30 30 SE 10 17 29.66 1004 10 16 0.00 0.00
10:53 pm 22:53 Clear 79 26.1 47 8.3 32 32 SE 13 20 29.66 1004 10 16 0.00 0.00
11:53 pm 23:53 Clear 77 25 47 8.3 35 35 SE 12 19 29.66 1004 10 16 0.00 0.00

Powered by AerisWeather